DECAYED
Showing default

DRAGON FREEDOM-2, 61447 (Decayed)

Orbit data source: Space-Track

DRAGON FREEDOM-2, 61447 was a payload satellite owned by SpaceX (US) in LEO that was launched on Sat, 28 Sep 2024 UTC via an FALCON 9 launch vehicle from the Air Force Eastern Test Range (AFETR). Payload-class satellites include a variety of spacecraft equipped with specific instruments for various scientific and technological missions. These include communications satellites like Starlink; space stations such as the ISS; scientific satellites like the Hubble; Earth observation satellites from companies like Planet Labs, Umbra, and HawkEye 360; GPS; miniature CubeSats for education and research; and military/defense satellites.

Not visible in the next 10 days
Identifier
61447, 2024-178A
Orbit
Decayed
Country
Flag of USUS
Related business
Manufacturer
SpaceX
Mission
Decayed Commercial Spaceship
Bus & Motor
DRAGON CM, Unknown motor
Mass
~13,055 kg wet, ~9,500 kg dry
Launch date (UTC)
2024-09-28 (1 year ago)
Launch vehicle
FALCON 9
Launch site
Air Force Eastern Test Range (AFETR)
Object type
Payload
Rocket body
Debris
Shape & HBR
Trunc Cone + Cyl + 4 Fin, 2.5 m
Radar Cross Section
21.677 m², Medium (>0.1 m² and < 1m²)

Expand to show TLE details & history
Last TLE update: 1 year ago

TLE from 1 year ago
0 DRAGON FREEDOM-2
1 61447U 24178A   25076.89181171 -.00124587  00000-0 -22480-2 0  9997
2 61447  51.6544  39.2330 0004086  45.4539 343.1317 15.49509203 26409
Epoch: 2025-03-17T21:24Z
TLE epoch observation values (Epoch: 2025-03-17T21:24:12.531Z)
Latitude
22.0873°
Longitude
-78.90578°
Altitude
416 km
Speed
7.666 km/s
True Right ascension
03h 51m 23s
True Declination
21° 57' 42"
Sunlit
Object was in daylight at epoch
Visualization orbit readout
Latitude
Unknown
Longitude
Unknown
Altitude
Unknown
Speed
Unknown
Apparent Right ascension
Unknown
Apparent Declination
Unknown
Sunlit
N/A
Visualization observer readout
Local Sidereal Time
04:08:26
Azimuth
Unknown
Elevation
Unknown
Doppler factor
Unknown
Orbital elements
Apogee altitude
421.443 km
Perigee altitude
415.889 km
Semi-major axis
6,796.803 km
Eccentricity
0.00041
Inclination
51.6544°
RAAN
39.233°
Arg. of periapsis
45.4539°
True anomaly
343.11811°
Mean anomaly
343.1317°
Eccentric anomaly
343.1249°
Mean motion
3.87334 °/min
Orbital period
92.94 mins
BSTAR
-0.002248
Loading maneuver chart data...
Computing Atmospheric mass density...
Loading historical data...
Loading historical data...
Loading historical data...
Loading historical data...
Loading historical data...
Loading historical data...
Loading historical data...
Other satellites on launch #178 in the year 2024 (2024-09-28 UTC)

Documentation

Showing up to 5 results
|